STARLINK-32331, 61623

Orbit data source: Space-Track

STARLINK-32331, 61623 is a payload satellite owned by SpaceX/Seattle (US) in LEO that was launched on Wed, 23 Oct 2024 UTC via an FALCON 9 launch vehicle from the Air Force Eastern Test Range (AFETR). Payload-class satellites include a variety of spacecraft equipped with specific instruments for various scientific and technological missions. These include communications satellites like Starlink; space stations such as the ISS; scientific satellites like the Hubble; Earth observation satellites from companies like Planet Labs, Umbra, and HawkEye 360; GPS; miniature CubeSats for education and research; and military/defense satellites.

Loading next visibility...
Identifier
61623, 2024-191C
Orbit
LEO
Country
Flag of USUS
Related business
Manufacturer
SpaceX/Seattle
Mission
Operational Commercial Communications
Bus & Motor
STARLINK V2M, Unknown motor
Mass
730 kg wet, ~700 kg dry
Launch date (UTC)
2024-10-23 (2 years ago)
Launch vehicle
FALCON 9
Launch site
Air Force Eastern Test Range (AFETR)
Object type
Payload
Rocket body
Debris
Shape & HBR
Box + 2 Pan, 17.7 m
Radar Cross Section
33.884 m², Large (>1 m²)

Expand to show TLE details & history
Last TLE update: 14 hours ago

TLE from 14 hours ago
0 STARLINK-32331
1 61623U 24191C   26207.09762465 -.00000283  00000-0 -75678-6 0  9995
2 61623  43.0035  96.3569 0001348 272.1539  87.9158 15.27572059 98668
Epoch: 2026-07-26T02:20Z
TLE epoch observation values (Epoch: 2026-07-26T02:20:34.769Z)
Latitude
-0.00005°
Longitude
117.41153°
Altitude
482.815 km
Speed
7.626 km/s
True Right ascension
06h 25m 25s
True Declination
0° 00' 00"
Sunlit
Object was in daylight at epoch
Visualization orbit readout
Latitude
Unknown
Longitude
Unknown
Altitude
Unknown
Speed
Unknown
Apparent Right ascension
Unknown
Apparent Declination
Unknown
Sunlit
N/A
Visualization observer readout
Local Sidereal Time
05:29:57
Azimuth
Unknown
Elevation
Unknown
Doppler factor
Unknown
Orbital elements
Apogee altitude
485.943 km
Perigee altitude
484.092 km
Semi-major axis
6,863.154 km
Eccentricity
0.00013
Inclination
43.0035°
RAAN
96.3569°
Arg. of periapsis
272.1539°
True anomaly
87.93124°
Mean anomaly
87.9158°
Eccentric anomaly
87.92352°
Mean motion
3.81731 °/min
Orbital period
94.31 mins
BSTAR
-7.5678e-7
Loading maneuver chart data...
Computing Atmospheric mass density...
Loading historical data...
Loading historical data...
Loading historical data...
Loading historical data...
Loading historical data...
Loading historical data...
Loading historical data...

Documentation

Showing up to 5 results
|